STARLINK-1375 (45546 NORAD) Tracking and Keplerian Element Data

This shows tracking and keplerian element data for the satellite.

Feedback or suggestion? Click here.




ElementValue
Catalog45546
NameSTARLINK-1375
Epoch Orbit623
Epoch Day149.08334491
Epoch Year2020
RAAN227.3853
Inclination52.996
Eccentricity9.03E-05
Argument of Perigee222.3308
Mean Anonmoly342.1702
Mean Motion15.3530436
Decay Rate0.02602093
L11 45546U 20025R 20149.08334491 .02602093 00000-0 66907-1 0 9992
L22 45546 52.9960 227.3853 0000903 222.3308 342.1702 15.35304360 6239

Live tracking and technical data element details for STARLINK-1375 (NORAD 45546). STARLINK-1375 can be tracked NOW for your location showing map with azimuth and elevation plus other details from your city location.

Track the satellite on the map from your city or location and see movement details for azimuth, elevation, latitude, longitude, range, height, and movement on the map or in text.







IsCatalogInMostPopularTable: catalog: 45546, numindb: 6
Update: records affected: 1



GetName: 45546 STARLINK-1375

Hit Count: updated at: Sat, 30 May 2020 14:21:41 GMT